Flag for Germany Weather past 2 weeks in Memmingen, Bavaria, Germany

Now
31 °F

Overcast.


Feels Like: 31 °F
Forecast: 26 / 39 °F
Wind: 1 mph from South

Location: Kempten

Current Time: Mar 5, 2015 at 5:11:11 AM

Latest Report: Mar 5, 2015 at 3:00 AM


Visibility: 17 mi

Pressure: 30.53 "Hg

Humidity: 88%

Dew point: 27 °F

Location of MemmingenLocation

Historic Weather in Memmingen — Graph

°F

Memmingen temperature yesterday

Maximum temperature yesterday: 41 °F (at 1:00 AM)
Minimum temperature yesterday: 31 °F (at 9:00 PM)
Average temperature yesterday: 35 °F

Past Weeks' High & Low Weather Summary

 TemperatureHumidityPressure
High52 °F (Feb 20, 1:00 PM)99% (Feb 28, 7:00 AM)30.77 "Hg (Feb 28, 7:00 AM)
Low17 °F (Feb 27, 5:00 AM)26% (Feb 20, 1:00 PM)29.50 "Hg (Feb 21, 1:00 PM)
Average33 °F79%30.08 "Hg
* Reported Feb 18 3:00 AM — Mar 5 3:00 AM, Memmingen, Weather by CustomWeather, © 2015

Note: Actual official high and low records may vary slightly from our data, if they occured in-between our weather recording intervals... More about our weather records

Advertising

Memmingen weather history for previous 24 hours

 ConditionsComfort  
Time TempWeatherWind HumidityBarometerVisibility
3:00 AM
Thu, Mar 5
31 °FOvercast.1 mph88%30.53 "Hg17 mi
2:00 AM30 °FOvercast.2 mph87%30.53 "Hg19 mi
1:00 AM31 °FLight snow. Overcast.1 mph85%30.52 "Hg4 mi
12:00 AM31 °FOvercast.2 mph85%30.50 "Hg22 mi
11:00 PM
Wed, Mar 4
31 °FOvercast.1 mph88%30.49 "Hg19 mi
9:00 PM31 °FOvercast.2 mph88%30.45 "Hg19 mi
8:00 PM31 °FOvercast.2 mph87%30.44 "Hg25 mi
7:00 PM31 °FOvercast.3 mph88%30.43 "Hg19 mi
6:00 PM33 °FOvercast.2 mph75%30.40 "Hg28 mi
5:00 PM33 °FOvercast.2 mph77%30.37 "Hg14 mi
4:00 PM36 °FPartly sunny.3 mph70%30.34 "Hg17 mi
3:00 PM39 °FPartly sunny.2 mph68%30.33 "Hg17 mi
2:00 PM38 °FPartly sunny.2 mph73%30.34 "Hg19 mi
1:00 PM34 °FLow clouds.2 mph81%30.37 "Hg9 mi
12:00 PM36 °FOvercast.2 mph74%30.36 "Hg19 mi
11:00 AM35 °FOvercast.1 mph82%30.37 "Hg16 mi
9:00 AM32 °FOvercast.2 mph89%30.36 "Hg22 mi
8:00 AM32 °FOvercast.3 mph91%30.36 "Hg25 mi
7:00 AM32 °FLow clouds.3 mph95%30.35 "Hg22 mi
6:00 AM32 °FSnow. Dense fog.2 mph92%30.33 "Hg2 mi
5:00 AM33 °FSnow. Low clouds.2 mph98%30.29 "Hg1 mi
Weather by CustomWeather, © 2015

See weather overviewHow to use our weather pages